<?xml version="1.0" encoding="UTF-8" standalone="no" ?>
<gpx xmlns="http://www.topografix.com/GPX/1/1" xmlns:xsi="http://www.w3.org/2001/XMLSchema-instance" xsi:schemaLocation="http://www.topografix.com/GPX/1/1 http://www.topografix.com/GPX/1/1/gpx.xsd" version="1.1" creator="VisuGPX - https://www.visugpx.com">
  <metadata>
    <name>Tour Meygal</name>
    <desc><![CDATA[grp_trc:Mézenc]]></desc>
  </metadata>
  <trk>
    <name><![CDATA[Le Tour du Meygal Le Testavoyre 14 kms]]></name>
    <cmt><![CDATA[12:49:03]]></cmt>
    <desc><![CDATA[<html dir="ltr"><head></head><body contenteditable="true">comment ...</body></html>]]></desc>
    <trkseg>
      <trkpt lat="45.07262" lon="4.12869">
        <ele>1247</ele>
        <time>2022-04-24T10:49:03Z</time>
      </trkpt>
      <trkpt lat="45.07201" lon="4.12853">
        <ele>1249</ele>
      </trkpt>
      <trkpt lat="45.07139" lon="4.12836">
        <ele>1253</ele>
      </trkpt>
      <trkpt lat="45.07078" lon="4.1282">
        <ele>1256</ele>
      </trkpt>
      <trkpt lat="45.07016" lon="4.12804">
        <ele>1260</ele>
        <time>2022-04-24T10:49:03Z</time>
      </trkpt>
      <trkpt lat="45.06963" lon="4.12818">
        <ele>1264</ele>
      </trkpt>
      <trkpt lat="45.06909" lon="4.12832">
        <ele>1267</ele>
        <time>2022-04-24T10:49:03Z</time>
      </trkpt>
      <trkpt lat="45.06849" lon="4.1281">
        <ele>1269</ele>
      </trkpt>
      <trkpt lat="45.06789" lon="4.12788">
        <ele>1270</ele>
        <time>2022-04-24T10:49:03Z</time>
      </trkpt>
      <trkpt lat="45.06785" lon="4.12777">
        <ele>1270</ele>
        <time>2022-04-24T10:49:03Z</time>
      </trkpt>
      <trkpt lat="45.06708" lon="4.12716">
        <ele>1269</ele>
        <time>2022-04-24T10:49:03Z</time>
      </trkpt>
      <trkpt lat="45.06698" lon="4.12695">
        <ele>1268</ele>
        <time>2022-04-24T10:49:03Z</time>
      </trkpt>
      <trkpt lat="45.06697" lon="4.12663">
        <ele>1267</ele>
        <time>2022-04-24T10:49:03Z</time>
      </trkpt>
      <trkpt lat="45.06672" lon="4.12656">
        <ele>1266</ele>
        <time>2022-04-24T10:49:03Z</time>
      </trkpt>
      <trkpt lat="45.06656" lon="4.12644">
        <ele>1265</ele>
        <time>2022-04-24T10:49:03Z</time>
      </trkpt>
      <trkpt lat="45.06644" lon="4.12616">
        <ele>1263</ele>
        <time>2022-04-24T10:49:03Z</time>
      </trkpt>
      <trkpt lat="45.06644" lon="4.12577">
        <ele>1262</ele>
        <time>2022-04-24T10:49:03Z</time>
      </trkpt>
      <trkpt lat="45.06605" lon="4.12476">
        <ele>1258</ele>
        <time>2022-04-24T10:49:03Z</time>
      </trkpt>
      <trkpt lat="45.0658" lon="4.12455">
        <ele>1256</ele>
        <time>2022-04-24T10:49:03Z</time>
      </trkpt>
      <trkpt lat="45.06552" lon="4.12444">
        <ele>1253</ele>
        <time>2022-04-24T10:49:03Z</time>
      </trkpt>
      <trkpt lat="45.06543" lon="4.12431">
        <ele>1251</ele>
        <time>2022-04-24T10:49:03Z</time>
      </trkpt>
      <trkpt lat="45.06521" lon="4.12421">
        <ele>1250</ele>
        <time>2022-04-24T10:49:03Z</time>
      </trkpt>
      <trkpt lat="45.06484" lon="4.12371">
        <ele>1247</ele>
        <time>2022-04-24T10:49:03Z</time>
      </trkpt>
      <trkpt lat="45.06478" lon="4.12345">
        <ele>1244</ele>
        <time>2022-04-24T10:49:03Z</time>
      </trkpt>
      <trkpt lat="45.06478" lon="4.12317">
        <ele>1242</ele>
        <time>2022-04-24T10:49:03Z</time>
      </trkpt>
      <trkpt lat="45.06444" lon="4.12268">
        <ele>1239</ele>
      </trkpt>
      <trkpt lat="45.06409" lon="4.12218">
        <ele>1234</ele>
        <time>2022-04-24T10:49:03Z</time>
      </trkpt>
      <trkpt lat="45.06372" lon="4.12138">
        <ele>1226</ele>
      </trkpt>
      <trkpt lat="45.06334" lon="4.12058">
        <ele>1217</ele>
        <time>2022-04-24T10:49:03Z</time>
      </trkpt>
      <trkpt lat="45.06328" lon="4.11994">
        <ele>1209</ele>
        <time>2022-04-24T10:49:03Z</time>
      </trkpt>
      <trkpt lat="45.0631" lon="4.11949">
        <ele>1202</ele>
        <time>2022-04-24T10:49:03Z</time>
      </trkpt>
      <trkpt lat="45.06298" lon="4.11859">
        <ele>1193</ele>
        <time>2022-04-24T10:49:03Z</time>
      </trkpt>
      <trkpt lat="45.06249" lon="4.11835">
        <ele>1186</ele>
      </trkpt>
      <trkpt lat="45.062" lon="4.11811">
        <ele>1179</ele>
        <time>2022-04-24T10:49:03Z</time>
      </trkpt>
      <trkpt lat="45.06173" lon="4.11782">
        <ele>1174</ele>
        <time>2022-04-24T10:49:03Z</time>
      </trkpt>
      <trkpt lat="45.06171" lon="4.11748">
        <ele>1170</ele>
        <time>2022-04-24T10:49:03Z</time>
      </trkpt>
      <trkpt lat="45.06162" lon="4.11734">
        <ele>1167</ele>
        <time>2022-04-24T10:49:03Z</time>
      </trkpt>
      <trkpt lat="45.0616" lon="4.11616">
        <ele>1161</ele>
        <time>2022-04-24T10:49:03Z</time>
      </trkpt>
      <trkpt lat="45.06129" lon="4.11512">
        <ele>1155</ele>
      </trkpt>
      <trkpt lat="45.06098" lon="4.11408">
        <ele>1151</ele>
        <time>2022-04-24T10:49:03Z</time>
      </trkpt>
      <trkpt lat="45.06098" lon="4.11332">
        <ele>1148</ele>
      </trkpt>
      <trkpt lat="45.06097" lon="4.11257">
        <ele>1144</ele>
        <time>2022-04-24T10:49:03Z</time>
      </trkpt>
      <trkpt lat="45.06089" lon="4.11217">
        <ele>1142</ele>
        <time>2022-04-24T10:49:03Z</time>
      </trkpt>
      <trkpt lat="45.06054" lon="4.11119">
        <ele>1138</ele>
        <time>2022-04-24T10:49:03Z</time>
      </trkpt>
      <trkpt lat="45.06016" lon="4.11062">
        <ele>1135</ele>
      </trkpt>
      <trkpt lat="45.05978" lon="4.11004">
        <ele>1129</ele>
        <time>2022-04-24T10:49:03Z</time>
      </trkpt>
      <trkpt lat="45.05944" lon="4.10967">
        <ele>1123</ele>
        <time>2022-04-24T10:49:03Z</time>
      </trkpt>
      <trkpt lat="45.05902" lon="4.10943">
        <ele>1118</ele>
        <time>2022-04-24T10:49:03Z</time>
      </trkpt>
      <trkpt lat="45.0585" lon="4.10933">
        <ele>1112</ele>
      </trkpt>
      <trkpt lat="45.05798" lon="4.10922">
        <ele>1106</ele>
        <time>2022-04-24T10:49:03Z</time>
      </trkpt>
      <trkpt lat="45.05747" lon="4.10935">
        <ele>1099</ele>
        <time>2022-04-24T10:49:03Z</time>
      </trkpt>
      <trkpt lat="45.05751" lon="4.10922">
        <ele>1095</ele>
        <time>2022-04-24T10:49:03Z</time>
      </trkpt>
      <trkpt lat="45.05785" lon="4.10877">
        <ele>1091</ele>
        <time>2022-04-24T10:49:03Z</time>
      </trkpt>
      <trkpt lat="45.05854" lon="4.1083">
        <ele>1085</ele>
        <time>2022-04-24T10:49:03Z</time>
      </trkpt>
      <trkpt lat="45.05922" lon="4.10804">
        <ele>1080</ele>
        <time>2022-04-24T10:49:03Z</time>
      </trkpt>
      <trkpt lat="45.05929" lon="4.10757">
        <ele>1076</ele>
        <time>2022-04-24T10:49:03Z</time>
      </trkpt>
      <trkpt lat="45.05869" lon="4.10763">
        <ele>1073</ele>
        <time>2022-04-24T10:49:03Z</time>
      </trkpt>
      <trkpt lat="45.0588" lon="4.10679">
        <ele>1068</ele>
        <time>2022-04-24T10:49:03Z</time>
      </trkpt>
      <trkpt lat="45.05877" lon="4.10655">
        <ele>1064</ele>
        <time>2022-04-24T10:49:03Z</time>
      </trkpt>
      <trkpt lat="45.05868" lon="4.10632">
        <ele>1062</ele>
        <time>2022-04-24T10:49:03Z</time>
      </trkpt>
      <trkpt lat="45.05848" lon="4.10616">
        <ele>1059</ele>
        <time>2022-04-24T10:49:03Z</time>
      </trkpt>
      <trkpt lat="45.05824" lon="4.10615">
        <ele>1056</ele>
        <time>2022-04-24T10:49:03Z</time>
      </trkpt>
      <trkpt lat="45.05752" lon="4.10684">
        <ele>1051</ele>
        <time>2022-04-24T10:49:03Z</time>
      </trkpt>
      <trkpt lat="45.05722" lon="4.1069">
        <ele>1050</ele>
        <time>2022-04-24T10:49:03Z</time>
      </trkpt>
      <trkpt lat="45.05685" lon="4.1073">
        <ele>1050</ele>
        <time>2022-04-24T10:49:03Z</time>
      </trkpt>
      <trkpt lat="45.05654" lon="4.1074">
        <ele>1050</ele>
        <time>2022-04-24T10:49:03Z</time>
      </trkpt>
      <trkpt lat="45.05623" lon="4.10761">
        <ele>1051</ele>
        <time>2022-04-24T10:49:03Z</time>
      </trkpt>
      <trkpt lat="45.05616" lon="4.10774">
        <ele>1051</ele>
        <time>2022-04-24T10:49:03Z</time>
      </trkpt>
      <trkpt lat="45.056" lon="4.10874">
        <ele>1052</ele>
      </trkpt>
      <trkpt lat="45.05584" lon="4.10974">
        <ele>1055</ele>
        <time>2022-04-24T10:49:03Z</time>
      </trkpt>
      <trkpt lat="45.05569" lon="4.11002">
        <ele>1057</ele>
        <time>2022-04-24T10:49:03Z</time>
      </trkpt>
      <trkpt lat="45.05542" lon="4.11025">
        <ele>1059</ele>
        <time>2022-04-24T10:49:03Z</time>
      </trkpt>
      <trkpt lat="45.05532" lon="4.11063">
        <ele>1061</ele>
        <time>2022-04-24T10:49:03Z</time>
      </trkpt>
      <trkpt lat="45.05511" lon="4.11081">
        <ele>1063</ele>
        <time>2022-04-24T10:49:03Z</time>
      </trkpt>
      <trkpt lat="45.05493" lon="4.11127">
        <ele>1065</ele>
        <time>2022-04-24T10:49:03Z</time>
      </trkpt>
      <trkpt lat="45.05468" lon="4.11153">
        <ele>1067</ele>
        <time>2022-04-24T10:49:03Z</time>
      </trkpt>
      <trkpt lat="45.05431" lon="4.11239">
        <ele>1070</ele>
        <time>2022-04-24T10:49:03Z</time>
      </trkpt>
      <trkpt lat="45.05366" lon="4.11262">
        <ele>1074</ele>
        <time>2022-04-24T10:49:03Z</time>
      </trkpt>
      <trkpt lat="45.05317" lon="4.11304">
        <ele>1077</ele>
      </trkpt>
      <trkpt lat="45.05268" lon="4.11346">
        <ele>1080</ele>
        <time>2022-04-24T10:49:03Z</time>
      </trkpt>
      <trkpt lat="45.05241" lon="4.11353">
        <ele>1082</ele>
        <time>2022-04-24T10:49:03Z</time>
      </trkpt>
      <trkpt lat="45.05216" lon="4.11383">
        <ele>1084</ele>
        <time>2022-04-24T10:49:03Z</time>
      </trkpt>
      <trkpt lat="45.05203" lon="4.1139">
        <ele>1086</ele>
        <time>2022-04-24T10:49:03Z</time>
      </trkpt>
      <trkpt lat="45.05194" lon="4.11376">
        <ele>1087</ele>
        <time>2022-04-24T10:49:03Z</time>
      </trkpt>
      <trkpt lat="45.05187" lon="4.11271">
        <ele>1087</ele>
      </trkpt>
      <trkpt lat="45.05179" lon="4.11166">
        <ele>1087</ele>
        <time>2022-04-24T10:49:03Z</time>
      </trkpt>
      <trkpt lat="45.05146" lon="4.11079">
        <ele>1088</ele>
      </trkpt>
      <trkpt lat="45.05112" lon="4.10992">
        <ele>1088</ele>
        <time>2022-04-24T10:49:03Z</time>
      </trkpt>
      <trkpt lat="45.05097" lon="4.10978">
        <ele>1089</ele>
        <time>2022-04-24T10:49:03Z</time>
      </trkpt>
      <trkpt lat="45.05076" lon="4.10933">
        <ele>1089</ele>
        <time>2022-04-24T10:49:03Z</time>
      </trkpt>
      <trkpt lat="45.05063" lon="4.10919">
        <ele>1089</ele>
        <time>2022-04-24T10:49:03Z</time>
      </trkpt>
      <trkpt lat="45.05032" lon="4.10911">
        <ele>1090</ele>
        <time>2022-04-24T10:49:03Z</time>
      </trkpt>
      <trkpt lat="45.05015" lon="4.10877">
        <ele>1089</ele>
        <time>2022-04-24T10:49:03Z</time>
      </trkpt>
      <trkpt lat="45.04987" lon="4.10846">
        <ele>1088</ele>
        <time>2022-04-24T10:49:03Z</time>
      </trkpt>
      <trkpt lat="45.04946" lon="4.10822">
        <ele>1086</ele>
      </trkpt>
      <trkpt lat="45.04905" lon="4.10797">
        <ele>1084</ele>
        <time>2022-04-24T10:49:03Z</time>
      </trkpt>
      <trkpt lat="45.04843" lon="4.10724">
        <ele>1082</ele>
      </trkpt>
      <trkpt lat="45.04781" lon="4.10652">
        <ele>1082</ele>
        <time>2022-04-24T10:49:03Z</time>
      </trkpt>
      <trkpt lat="45.04764" lon="4.10604">
        <ele>1083</ele>
        <time>2022-04-24T10:49:03Z</time>
      </trkpt>
      <trkpt lat="45.04756" lon="4.10592">
        <ele>1084</ele>
        <time>2022-04-24T10:49:03Z</time>
      </trkpt>
      <trkpt lat="45.04681" lon="4.10577">
        <ele>1087</ele>
        <time>2022-04-24T10:49:03Z</time>
      </trkpt>
      <trkpt lat="45.04625" lon="4.10595">
        <ele>1090</ele>
      </trkpt>
      <trkpt lat="45.04569" lon="4.10613">
        <ele>1095</ele>
        <time>2022-04-24T10:49:03Z</time>
      </trkpt>
      <trkpt lat="45.04532" lon="4.10643">
        <ele>1100</ele>
      </trkpt>
      <trkpt lat="45.04495" lon="4.10673">
        <ele>1105</ele>
        <time>2022-04-24T10:49:03Z</time>
      </trkpt>
      <trkpt lat="45.04443" lon="4.1069">
        <ele>1110</ele>
      </trkpt>
      <trkpt lat="45.04391" lon="4.10707">
        <ele>1117</ele>
      </trkpt>
      <trkpt lat="45.04338" lon="4.10724">
        <ele>1124</ele>
      </trkpt>
      <trkpt lat="45.04286" lon="4.10741">
        <ele>1131</ele>
        <time>2022-04-24T10:49:03Z</time>
      </trkpt>
      <trkpt lat="45.04258" lon="4.10762">
        <ele>1137</ele>
        <time>2022-04-24T10:49:03Z</time>
      </trkpt>
      <trkpt lat="45.04211" lon="4.10821">
        <ele>1144</ele>
      </trkpt>
      <trkpt lat="45.04163" lon="4.1088">
        <ele>1151</ele>
        <time>2022-04-24T10:49:03Z</time>
      </trkpt>
      <trkpt lat="45.04146" lon="4.10889">
        <ele>1156</ele>
        <time>2022-04-24T10:49:03Z</time>
      </trkpt>
      <trkpt lat="45.04124" lon="4.10871">
        <ele>1161</ele>
        <time>2022-04-24T10:49:03Z</time>
      </trkpt>
      <trkpt lat="45.04083" lon="4.10865">
        <ele>1165</ele>
      </trkpt>
      <trkpt lat="45.04041" lon="4.10858">
        <ele>1168</ele>
      </trkpt>
      <trkpt lat="45.04" lon="4.10852">
        <ele>1171</ele>
      </trkpt>
      <trkpt lat="45.03958" lon="4.10846">
        <ele>1174</ele>
        <time>2022-04-24T10:49:03Z</time>
      </trkpt>
      <trkpt lat="45.03926" lon="4.10858">
        <ele>1177</ele>
        <time>2022-04-24T10:49:03Z</time>
      </trkpt>
      <trkpt lat="45.03874" lon="4.10887">
        <ele>1180</ele>
      </trkpt>
      <trkpt lat="45.03821" lon="4.10916">
        <ele>1184</ele>
        <time>2022-04-24T10:49:03Z</time>
      </trkpt>
      <trkpt lat="45.03785" lon="4.1092">
        <ele>1188</ele>
        <time>2022-04-24T10:49:03Z</time>
      </trkpt>
      <trkpt lat="45.03741" lon="4.10955">
        <ele>1193</ele>
      </trkpt>
      <trkpt lat="45.03697" lon="4.10989">
        <ele>1197</ele>
        <time>2022-04-24T10:49:03Z</time>
      </trkpt>
      <trkpt lat="45.0363" lon="4.10975">
        <ele>1199</ele>
        <time>2022-04-24T10:49:03Z</time>
      </trkpt>
      <trkpt lat="45.03562" lon="4.11024">
        <ele>1202</ele>
      </trkpt>
      <trkpt lat="45.03494" lon="4.11073">
        <ele>1203</ele>
        <time>2022-04-24T10:49:03Z</time>
      </trkpt>
      <trkpt lat="45.03476" lon="4.11104">
        <ele>1205</ele>
        <time>2022-04-24T10:49:03Z</time>
      </trkpt>
      <trkpt lat="45.03417" lon="4.11149">
        <ele>1207</ele>
      </trkpt>
      <trkpt lat="45.03358" lon="4.11195">
        <ele>1209</ele>
        <time>2022-04-24T10:49:03Z</time>
      </trkpt>
      <trkpt lat="45.03352" lon="4.1123">
        <ele>1211</ele>
        <time>2022-04-24T10:49:03Z</time>
      </trkpt>
      <trkpt lat="45.03331" lon="4.11245">
        <ele>1217</ele>
        <time>2022-04-24T10:49:03Z</time>
      </trkpt>
      <trkpt lat="45.03298" lon="4.11304">
        <ele>1216</ele>
        <time>2022-04-24T10:49:03Z</time>
      </trkpt>
      <trkpt lat="45.03263" lon="4.11332">
        <ele>1216</ele>
        <time>2022-04-24T10:49:03Z</time>
      </trkpt>
      <trkpt lat="45.03233" lon="4.11445">
        <ele>1217</ele>
      </trkpt>
      <trkpt lat="45.03202" lon="4.11557">
        <ele>1217</ele>
        <time>2022-04-24T10:49:03Z</time>
      </trkpt>
      <trkpt lat="45.03197" lon="4.1161">
        <ele>1217</ele>
        <time>2022-04-24T10:49:03Z</time>
      </trkpt>
      <trkpt lat="45.03178" lon="4.11645">
        <ele>1216</ele>
        <time>2022-04-24T10:49:03Z</time>
      </trkpt>
      <trkpt lat="45.03175" lon="4.11684">
        <ele>1216</ele>
        <time>2022-04-24T10:49:03Z</time>
      </trkpt>
      <trkpt lat="45.03194" lon="4.11693">
        <ele>1216</ele>
        <time>2022-04-24T10:49:03Z</time>
      </trkpt>
      <trkpt lat="45.0319" lon="4.11813">
        <ele>1217</ele>
        <time>2022-04-24T10:49:03Z</time>
      </trkpt>
      <trkpt lat="45.03219" lon="4.11852">
        <ele>1219</ele>
        <time>2022-04-24T10:49:03Z</time>
      </trkpt>
      <trkpt lat="45.03227" lon="4.11881">
        <ele>1221</ele>
        <time>2022-04-24T10:49:03Z</time>
      </trkpt>
      <trkpt lat="45.03241" lon="4.11899">
        <ele>1222</ele>
        <time>2022-04-24T10:49:03Z</time>
      </trkpt>
      <trkpt lat="45.03257" lon="4.11912">
        <ele>1224</ele>
        <time>2022-04-24T10:49:03Z</time>
      </trkpt>
      <trkpt lat="45.03278" lon="4.11914">
        <ele>1225</ele>
        <time>2022-04-24T10:49:03Z</time>
      </trkpt>
      <trkpt lat="45.0328" lon="4.11927">
        <ele>1227</ele>
        <time>2022-04-24T10:49:03Z</time>
      </trkpt>
      <trkpt lat="45.03279" lon="4.11952">
        <ele>1228</ele>
        <time>2022-04-24T10:49:03Z</time>
      </trkpt>
      <trkpt lat="45.03265" lon="4.11979">
        <ele>1228</ele>
        <time>2022-04-24T10:49:03Z</time>
      </trkpt>
      <trkpt lat="45.03267" lon="4.12007">
        <ele>1228</ele>
        <time>2022-04-24T10:49:03Z</time>
      </trkpt>
      <trkpt lat="45.03284" lon="4.12048">
        <ele>1229</ele>
        <time>2022-04-24T10:49:03Z</time>
      </trkpt>
      <trkpt lat="45.03263" lon="4.12091">
        <ele>1228</ele>
        <time>2022-04-24T10:49:03Z</time>
      </trkpt>
      <trkpt lat="45.03226" lon="4.12131">
        <ele>1226</ele>
        <time>2022-04-24T10:49:03Z</time>
      </trkpt>
      <trkpt lat="45.0321" lon="4.12174">
        <ele>1224</ele>
        <time>2022-04-24T10:49:03Z</time>
      </trkpt>
      <trkpt lat="45.03194" lon="4.12197">
        <ele>1222</ele>
        <time>2022-04-24T10:49:03Z</time>
      </trkpt>
      <trkpt lat="45.03243" lon="4.12276">
        <ele>1220</ele>
        <time>2022-04-24T10:49:03Z</time>
      </trkpt>
      <trkpt lat="45.03282" lon="4.12298">
        <ele>1220</ele>
        <time>2022-04-24T10:49:03Z</time>
      </trkpt>
      <trkpt lat="45.03327" lon="4.12341">
        <ele>1220</ele>
        <time>2022-04-24T10:49:03Z</time>
      </trkpt>
      <trkpt lat="45.03337" lon="4.1237">
        <ele>1221</ele>
        <time>2022-04-24T10:49:03Z</time>
      </trkpt>
      <trkpt lat="45.03338" lon="4.124">
        <ele>1221</ele>
        <time>2022-04-24T10:49:03Z</time>
      </trkpt>
      <trkpt lat="45.03351" lon="4.12438">
        <ele>1222</ele>
        <time>2022-04-24T10:49:03Z</time>
      </trkpt>
      <trkpt lat="45.03367" lon="4.12466">
        <ele>1222</ele>
        <time>2022-04-24T10:49:03Z</time>
      </trkpt>
      <trkpt lat="45.03394" lon="4.12483">
        <ele>1223</ele>
        <time>2022-04-24T10:49:03Z</time>
      </trkpt>
      <trkpt lat="45.03408" lon="4.12483">
        <ele>1225</ele>
        <time>2022-04-24T10:49:03Z</time>
      </trkpt>
      <trkpt lat="45.03429" lon="4.125">
        <ele>1226</ele>
        <time>2022-04-24T10:49:03Z</time>
      </trkpt>
      <trkpt lat="45.03455" lon="4.12556">
        <ele>1227</ele>
        <time>2022-04-24T10:49:03Z</time>
      </trkpt>
      <trkpt lat="45.03499" lon="4.12584">
        <ele>1229</ele>
        <time>2022-04-24T10:49:03Z</time>
      </trkpt>
      <trkpt lat="45.03557" lon="4.12697">
        <ele>1232</ele>
        <time>2022-04-24T10:49:03Z</time>
      </trkpt>
      <trkpt lat="45.03616" lon="4.12734">
        <ele>1236</ele>
        <time>2022-04-24T10:49:03Z</time>
      </trkpt>
      <trkpt lat="45.03712" lon="4.12851">
        <ele>1242</ele>
      </trkpt>
      <trkpt lat="45.03807" lon="4.12969">
        <ele>1252</ele>
        <time>2022-04-24T10:49:03Z</time>
      </trkpt>
      <trkpt lat="45.03867" lon="4.12996">
        <ele>1261</ele>
        <time>2022-04-24T10:49:03Z</time>
      </trkpt>
      <trkpt lat="45.03962" lon="4.12991">
        <ele>1271</ele>
        <time>2022-04-24T10:49:03Z</time>
      </trkpt>
      <trkpt lat="45.04043" lon="4.12995">
        <ele>1282</ele>
      </trkpt>
      <trkpt lat="45.04124" lon="4.12998">
        <ele>1291</ele>
        <time>2022-04-24T10:49:03Z</time>
      </trkpt>
      <trkpt lat="45.04123" lon="4.13022">
        <ele>1297</ele>
        <time>2022-04-24T10:49:03Z</time>
      </trkpt>
      <trkpt lat="45.04144" lon="4.13025">
        <ele>1301</ele>
        <time>2022-04-24T10:49:03Z</time>
      </trkpt>
      <trkpt lat="45.04185" lon="4.13092">
        <ele>1306</ele>
        <time>2022-04-24T10:49:03Z</time>
      </trkpt>
      <trkpt lat="45.04197" lon="4.13072">
        <ele>1310</ele>
        <time>2022-04-24T10:49:03Z</time>
      </trkpt>
      <trkpt lat="45.0421" lon="4.13058">
        <ele>1313</ele>
        <time>2022-04-24T10:49:03Z</time>
      </trkpt>
      <trkpt lat="45.043" lon="4.1307">
        <ele>1319</ele>
        <time>2022-04-24T10:49:03Z</time>
      </trkpt>
      <trkpt lat="45.04328" lon="4.13092">
        <ele>1324</ele>
        <time>2022-04-24T10:49:03Z</time>
      </trkpt>
      <trkpt lat="45.04346" lon="4.13126">
        <ele>1327</ele>
        <time>2022-04-24T10:49:03Z</time>
      </trkpt>
      <trkpt lat="45.04447" lon="4.13099">
        <ele>1331</ele>
        <time>2022-04-24T10:49:03Z</time>
      </trkpt>
      <trkpt lat="45.04504" lon="4.13104">
        <ele>1344</ele>
        <time>2022-04-24T10:49:03Z</time>
      </trkpt>
      <trkpt lat="45.04505" lon="4.13124">
        <ele>1345</ele>
        <time>2022-04-24T10:49:03Z</time>
      </trkpt>
      <trkpt lat="45.04534" lon="4.13183">
        <ele>1346</ele>
      </trkpt>
      <trkpt lat="45.04563" lon="4.13242">
        <ele>1348</ele>
        <time>2022-04-24T10:49:03Z</time>
      </trkpt>
      <trkpt lat="45.04567" lon="4.13326">
        <ele>1350</ele>
      </trkpt>
      <trkpt lat="45.0457" lon="4.13409">
        <ele>1352</ele>
        <time>2022-04-24T10:49:03Z</time>
      </trkpt>
      <trkpt lat="45.04592" lon="4.13509">
        <ele>1353</ele>
      </trkpt>
      <trkpt lat="45.04613" lon="4.1361">
        <ele>1354</ele>
        <time>2022-04-24T10:49:03Z</time>
      </trkpt>
      <trkpt lat="45.04615" lon="4.13672">
        <ele>1355</ele>
        <time>2022-04-24T10:49:03Z</time>
      </trkpt>
      <trkpt lat="45.04611" lon="4.13704">
        <ele>1355</ele>
        <time>2022-04-24T10:49:03Z</time>
      </trkpt>
      <trkpt lat="45.04614" lon="4.13735">
        <ele>1354</ele>
        <time>2022-04-24T10:49:03Z</time>
      </trkpt>
      <trkpt lat="45.04639" lon="4.13799">
        <ele>1354</ele>
      </trkpt>
      <trkpt lat="45.04664" lon="4.13864">
        <ele>1353</ele>
      </trkpt>
      <trkpt lat="45.04689" lon="4.13928">
        <ele>1351</ele>
      </trkpt>
      <trkpt lat="45.04714" lon="4.13993">
        <ele>1349</ele>
        <time>2022-04-24T10:49:03Z</time>
      </trkpt>
      <trkpt lat="45.04754" lon="4.14024">
        <ele>1346</ele>
        <time>2022-04-24T10:49:03Z</time>
      </trkpt>
      <trkpt lat="45.04795" lon="4.13953">
        <ele>1345</ele>
      </trkpt>
      <trkpt lat="45.04835" lon="4.13882">
        <ele>1344</ele>
        <time>2022-04-24T10:49:03Z</time>
      </trkpt>
      <trkpt lat="45.0488" lon="4.13789">
        <ele>1345</ele>
      </trkpt>
      <trkpt lat="45.04925" lon="4.13696">
        <ele>1348</ele>
        <time>2022-04-24T10:49:03Z</time>
      </trkpt>
      <trkpt lat="45.04957" lon="4.13661">
        <ele>1351</ele>
        <time>2022-04-24T10:49:03Z</time>
      </trkpt>
      <trkpt lat="45.05002" lon="4.13632">
        <ele>1354</ele>
        <time>2022-04-24T10:49:03Z</time>
      </trkpt>
      <trkpt lat="45.05026" lon="4.13606">
        <ele>1357</ele>
        <time>2022-04-24T10:49:03Z</time>
      </trkpt>
      <trkpt lat="45.05043" lon="4.13567">
        <ele>1359</ele>
        <time>2022-04-24T10:49:03Z</time>
      </trkpt>
      <trkpt lat="45.05062" lon="4.13466">
        <ele>1361</ele>
        <time>2022-04-24T10:49:03Z</time>
      </trkpt>
      <trkpt lat="45.05078" lon="4.13444">
        <ele>1361</ele>
        <time>2022-04-24T10:49:03Z</time>
      </trkpt>
      <trkpt lat="45.05115" lon="4.13423">
        <ele>1361</ele>
        <time>2022-04-24T10:49:03Z</time>
      </trkpt>
      <trkpt lat="45.05157" lon="4.13407">
        <ele>1361</ele>
      </trkpt>
      <trkpt lat="45.05199" lon="4.13391">
        <ele>1361</ele>
        <time>2022-04-24T10:49:03Z</time>
      </trkpt>
      <trkpt lat="45.05228" lon="4.1334">
        <ele>1362</ele>
      </trkpt>
      <trkpt lat="45.05257" lon="4.13288">
        <ele>1363</ele>
        <time>2022-04-24T10:49:03Z</time>
      </trkpt>
      <trkpt lat="45.05275" lon="4.13267">
        <ele>1364</ele>
        <time>2022-04-24T10:49:03Z</time>
      </trkpt>
      <trkpt lat="45.05303" lon="4.13272">
        <ele>1366</ele>
        <time>2022-04-24T10:49:03Z</time>
      </trkpt>
      <trkpt lat="45.0536" lon="4.13295">
        <ele>1369</ele>
        <time>2022-04-24T10:49:03Z</time>
      </trkpt>
      <trkpt lat="45.05392" lon="4.13296">
        <ele>1372</ele>
        <time>2022-04-24T10:49:03Z</time>
      </trkpt>
      <trkpt lat="45.05428" lon="4.13275">
        <ele>1376</ele>
        <time>2022-04-24T10:49:03Z</time>
      </trkpt>
      <trkpt lat="45.0545" lon="4.13252">
        <ele>1380</ele>
        <time>2022-04-24T10:49:03Z</time>
      </trkpt>
      <trkpt lat="45.05455" lon="4.13236">
        <ele>1384</ele>
        <time>2022-04-24T10:49:03Z</time>
      </trkpt>
      <trkpt lat="45.05446" lon="4.13209">
        <ele>1387</ele>
        <time>2022-04-24T10:49:03Z</time>
      </trkpt>
      <trkpt lat="45.05432" lon="4.13183">
        <ele>1390</ele>
        <time>2022-04-24T10:49:03Z</time>
      </trkpt>
      <trkpt lat="45.05436" lon="4.13154">
        <ele>1393</ele>
        <time>2022-04-24T10:49:03Z</time>
      </trkpt>
      <trkpt lat="45.05445" lon="4.13132">
        <ele>1396</ele>
        <time>2022-04-24T10:49:03Z</time>
      </trkpt>
      <trkpt lat="45.05445" lon="4.13121">
        <ele>1398</ele>
        <time>2022-04-24T10:49:03Z</time>
      </trkpt>
      <trkpt lat="45.0544" lon="4.13094">
        <ele>1401</ele>
        <time>2022-04-24T10:49:03Z</time>
      </trkpt>
      <trkpt lat="45.05445" lon="4.13078">
        <ele>1403</ele>
        <time>2022-04-24T10:49:03Z</time>
      </trkpt>
      <trkpt lat="45.05452" lon="4.13068">
        <ele>1406</ele>
        <time>2022-04-24T10:49:03Z</time>
      </trkpt>
      <trkpt lat="45.05457" lon="4.13039">
        <ele>1409</ele>
        <time>2022-04-24T10:49:03Z</time>
      </trkpt>
      <trkpt lat="45.05476" lon="4.13035">
        <ele>1413</ele>
        <time>2022-04-24T10:49:03Z</time>
      </trkpt>
      <trkpt lat="45.0549" lon="4.13047">
        <ele>1416</ele>
        <time>2022-04-24T10:49:03Z</time>
      </trkpt>
      <trkpt lat="45.05518" lon="4.13103">
        <ele>1418</ele>
      </trkpt>
      <trkpt lat="45.05545" lon="4.13159">
        <ele>1418</ele>
      </trkpt>
      <trkpt lat="45.05573" lon="4.13216">
        <ele>1414</ele>
      </trkpt>
      <trkpt lat="45.056" lon="4.13272">
        <ele>1411</ele>
        <time>2022-04-24T10:49:03Z</time>
      </trkpt>
      <trkpt lat="45.05624" lon="4.13263">
        <ele>1409</ele>
        <time>2022-04-24T10:49:03Z</time>
      </trkpt>
      <trkpt lat="45.05681" lon="4.13226">
        <ele>1404</ele>
        <time>2022-04-24T10:49:03Z</time>
      </trkpt>
      <trkpt lat="45.05704" lon="4.13182">
        <ele>1398</ele>
        <time>2022-04-24T10:49:03Z</time>
      </trkpt>
      <trkpt lat="45.05752" lon="4.13158">
        <ele>1388</ele>
      </trkpt>
      <trkpt lat="45.058" lon="4.13133">
        <ele>1377</ele>
        <time>2022-04-24T10:49:03Z</time>
      </trkpt>
      <trkpt lat="45.05865" lon="4.13195">
        <ele>1364</ele>
        <time>2022-04-24T10:49:03Z</time>
      </trkpt>
      <trkpt lat="45.05907" lon="4.13207">
        <ele>1355</ele>
      </trkpt>
      <trkpt lat="45.05948" lon="4.13218">
        <ele>1348</ele>
        <time>2022-04-24T10:49:03Z</time>
      </trkpt>
      <trkpt lat="45.06026" lon="4.13261">
        <ele>1339</ele>
        <time>2022-04-24T10:49:03Z</time>
      </trkpt>
      <trkpt lat="45.06054" lon="4.13288">
        <ele>1333</ele>
        <time>2022-04-24T10:49:03Z</time>
      </trkpt>
      <trkpt lat="45.06065" lon="4.13305">
        <ele>1329</ele>
        <time>2022-04-24T10:49:03Z</time>
      </trkpt>
      <trkpt lat="45.06078" lon="4.13343">
        <ele>1325</ele>
        <time>2022-04-24T10:49:03Z</time>
      </trkpt>
      <trkpt lat="45.06132" lon="4.13318">
        <ele>1321</ele>
      </trkpt>
      <trkpt lat="45.06187" lon="4.13292">
        <ele>1315</ele>
      </trkpt>
      <trkpt lat="45.06241" lon="4.13267">
        <ele>1310</ele>
      </trkpt>
      <trkpt lat="45.06295" lon="4.13242">
        <ele>1305</ele>
      </trkpt>
      <trkpt lat="45.06349" lon="4.13216">
        <ele>1300</ele>
      </trkpt>
      <trkpt lat="45.06404" lon="4.13191">
        <ele>1297</ele>
      </trkpt>
      <trkpt lat="45.06458" lon="4.13166">
        <ele>1294</ele>
      </trkpt>
      <trkpt lat="45.06512" lon="4.13141">
        <ele>1291</ele>
      </trkpt>
      <trkpt lat="45.06566" lon="4.13115">
        <ele>1290</ele>
      </trkpt>
      <trkpt lat="45.06621" lon="4.1309">
        <ele>1289</ele>
      </trkpt>
      <trkpt lat="45.06675" lon="4.13065">
        <ele>1288</ele>
      </trkpt>
      <trkpt lat="45.06729" lon="4.13039">
        <ele>1288</ele>
      </trkpt>
      <trkpt lat="45.06783" lon="4.13014">
        <ele>1287</ele>
      </trkpt>
      <trkpt lat="45.06838" lon="4.12989">
        <ele>1286</ele>
      </trkpt>
      <trkpt lat="45.06892" lon="4.12963">
        <ele>1285</ele>
      </trkpt>
      <trkpt lat="45.06946" lon="4.12938">
        <ele>1283</ele>
        <time>2022-04-24T10:49:03Z</time>
      </trkpt>
      <trkpt lat="45.07008" lon="4.12929">
        <ele>1281</ele>
      </trkpt>
      <trkpt lat="45.0707" lon="4.1292">
        <ele>1277</ele>
      </trkpt>
      <trkpt lat="45.07131" lon="4.1291">
        <ele>1273</ele>
      </trkpt>
      <trkpt lat="45.07193" lon="4.12901">
        <ele>1268</ele>
        <time>2022-04-24T10:49:03Z</time>
      </trkpt>
      <trkpt lat="45.07266" lon="4.12877">
        <ele>1262</ele>
        <time>2022-04-24T10:49:03Z</time>
      </trkpt>
    </trkseg>
  </trk>
</gpx>